,,PA_Meas_PMT16A,,PR_Meas_QMR101_102,,RH_Meas_QMH101,,SR_Meas_QMS101,,TA_Meas_QMH101,,GenWind,,GenWind,
time,status,PA,status,PR,status,RH,status,SR,status,TA,status,DirAvg,status,SpdAvg,
2013-11-01, 00:00:04,VALID,918.912,VALID,0,VALID,96.947,VALID,0,VALID,19.2348,VALID,153,VALID,0,
2013-11-01, 00:01:04,VALID,918.879,VALID,0,VALID,96.9546,VALID,0.107441,VALID,19.2543,VALID,153,VALID,0,
2013-11-01, 00:02:04,VALID,918.892,VALID,0,VALID,96.9622,VALID,0.107441,VALID,19.2933,VALID,153,VALID,0,
2013-11-01, 00:03:04,VALID,918.885,VALID,0,VALID,96.9622,VALID,0.107441,VALID,19.3128,VALID,153,VALID,0,
2013-11-01, 00:04:04,VALID,918.873,VALID,0,VALID,96.9546,VALID,0.107441,VALID,19.3533,VALID,153,VALID,0,
2013-11-01, 00:05:04,VALID,918.815,VALID,0,VALID,96.9775,VALID,0,VALID,19.3323,VALID,153,VALID,0,
2013-11-01, 00:06:04,VALID,918.784,VALID,0,VALID,96.9775,VALID,0.107441,VALID,19.3518,VALID,153,VALID,0,
2013-11-01, 00:07:04,VALID,918.769,VALID,0,VALID,96.9622,VALID,0.107441,VALID,19.3128,VALID,153,VALID,0,
2013-11-01, 00:08:04,VALID,918.742,VALID,0,VALID,96.9851,VALID,0.107441,VALID,19.2738,VALID,153,VALID,0,
2013-11-01, 00:09:04,VALID,918.716,VALID,0,VALID,96.9622,VALID,0,VALID,19.2348,VALID,153,VALID,0,
2013-11-01, 00:10:04,VALID,918.72,VALID,0,VALID,96.9775,VALID,0.107441,VALID,19.2348,VALID,153,VALID,0,
2013-11-01, 00:11:04,VALID,918.698,VALID,0,VALID,96.9775,VALID,0,VALID,19.1958,VALID,140,VALID,0,
2013-11-01, 00:12:04,VALID,918.688,VALID,0,VALID,96.9698,VALID,0.107441,VALID,19.1958,VALID,132,VALID,0,
2013-11-01, 00:13:04,VALID,918.677,VALID,0,VALID,96.9851,VALID,0,VALID,19.1763,VALID,132,VALID,0,
2013-11-01, 00:14:04,VALID,918.659,VALID,0,VALID,97.0003,VALID,0,VALID,19.1568,VALID,132,VALID,0,
2013-11-01, 00:15:04,VALID,918.643,VALID,0,VALID,96.9927,VALID,0.107441,VALID,19.1583,VALID,132,VALID,0,
2013-11-01, 00:16:04,VALID,918.648,VALID,0,VALID,96.9851,VALID,0,VALID,19.1583,VALID,132,VALID,0,
2013-11-01, 00:17:04,VALID,918.63,VALID,0,VALID,96.9927,VALID,0.107441,VALID,19.1568,VALID,132,VALID,0,
2013-11-01, 00:18:04,VALID,918.636,VALID,0,VALID,97.0003,VALID,0.107441,VALID,19.1958,VALID,132,VALID,0,
2013-11-01, 00:19:04,VALID,918.607,VALID,0,VALID,97.0003,VALID,0,VALID,19.1373,VALID,132,VALID,0,
2013-11-01, 00:20:04,VALID,918.588,VALID,0,VALID,96.9851,VALID,0.107441,VALID,19.1373,VALID,132,VALID,0,
2013-11-01, 00:21:04,VALID,918.573,VALID,0,VALID,96.9622,VALID,0,VALID,19.1554,VALID,132,VALID,0,
2013-11-01, 00:22:04,VALID,918.566,VALID,0,VALID,96.9851,VALID,0.107441,VALID,19.1958,VALID,132,VALID,0,
2013-11-01, 00:23:04,VALID,918.559,VALID,0,VALID,96.9775,VALID,0,VALID,19.1958,VALID,132,VALID,0,
2013-11-01, 00:24:04,VALID,918.571,VALID,0,VALID,96.9775,VALID,0.107441,VALID,19.1958,VALID,133,VALID,0,
2013-11-01, 00:25:04,VALID,918.58,VALID,0,VALID,96.9851,VALID,0,VALID,19.1763,VALID,153,VALID,0,
2013-11-01, 00:26:04,VALID,918.613,VALID,0,VALID,96.9775,VALID,0,VALID,19.1973,VALID,153,VALID,0,
2013-11-01, 00:27:04,VALID,918.6,VALID,0,VALID,96.9622,VALID,0.107441,VALID,19.1958,VALID,153,VALID,0,
2013-11-01, 00:28:04,VALID,918.603,VALID,0,VALID,96.9698,VALID,0.107441,VALID,19.2168,VALID,153,VALID,0,
2013-11-01, 00:29:04,VALID,918.564,VALID,0,VALID,96.9851,VALID,0,VALID,19.2168,VALID,153,VALID,0,
2013-11-01, 00:30:04,VALID,918.581,VALID,0,VALID,96.9775,VALID,0.107441,VALID,19.1958,VALID,153,VALID,0,
2013-11-01, 00:31:04,VALID,918.55,VALID,0,VALID,96.9851,VALID,0,VALID,19.2363,VALID,153,VALID,0,
2013-11-01, 00:32:04,VALID,918.536,VALID,0,VALID,96.9698,VALID,0.107441,VALID,19.2558,VALID,153,VALID,0,
2013-11-01, 00:33:04,VALID,918.482,VALID,0,VALID,96.9698,VALID,0.107441,VALID,19.2543,VALID,153,VALID,0,
2013-11-01, 00:34:04,VALID,918.461,VALID,0,VALID,96.9775,VALID,0.107441,VALID,19.2738,VALID,153,VALID,0,
2013-11-01, 00:35:04,VALID,918.396,VALID,0,VALID,96.9698,VALID,0,VALID,19.2933,VALID,153,VALID,0,
2013-11-01, 00:36:04,VALID,918.383,VALID,0,VALID,96.9622,VALID,0.107441,VALID,19.3128,VALID,154,VALID,0,
2013-11-01, 00:37:04,VALID,918.338,VALID,0,VALID,96.9775,VALID,0.107441,VALID,19.3323,VALID,190,VALID,0,
2013-11-01, 00:38:04,VALID,918.303,VALID,0,VALID,96.9698,VALID,0.107441,VALID,19.3728,VALID,181,VALID,0,
2013-11-01, 00:39:04,VALID,918.266,VALID,0,VALID,96.9546,VALID,0,VALID,19.3923,VALID,181,VALID,0,
2013-11-01, 00:40:04,VALID,918.223,VALID,0,VALID,96.9622,VALID,0,VALID,19.4118,VALID,181,VALID,0,
2013-11-01, 00:41:04,VALID,918.184,VALID,0,VALID,96.9698,VALID,0,VALID,19.3908,VALID,183,VALID,0,
2013-11-01, 00:42:04,VALID,918.148,VALID,0,VALID,96.9546,VALID,0,VALID,19.4508,VALID,182,VALID,0,
2013-11-01, 00:43:04,VALID,918.113,VALID,0,VALID,96.9546,VALID,0,VALID,19.4298,VALID,183,VALID,0,
2013-11-01, 00:44:04,VALID,918.104,VALID,0,VALID,96.947,VALID,0,VALID,19.4493,VALID,186,VALID,0,
2013-11-01, 00:45:04,VALID,918.103,VALID,0,VALID,96.9317,VALID,0.107441,VALID,19.4493,VALID,183,VALID,0,
2013-11-01, 00:46:04,VALID,918.092,VALID,0,VALID,96.9394,VALID,0,VALID,19.4493,VALID,183,VALID,0,
2013-11-01, 00:47:04,VALID,918.095,VALID,0,VALID,96.9165,VALID,0,VALID,19.4298,VALID,183,VALID,0,
2013-11-01, 00:48:04,VALID,918.113,VALID,0,VALID,96.9317,VALID,0.107441,VALID,19.4493,VALID,183,VALID,0,
2013-11-01, 00:49:04,VALID,918.094,VALID,0,VALID,96.9241,VALID,0,VALID,19.4313,VALID,174,VALID,0,
2013-11-01, 00:50:04,VALID,918.063,VALID,0,VALID,96.9317,VALID,0,VALID,19.3923,VALID,157,VALID,0,
2013-11-01, 00:51:04,VALID,918.052,VALID,0,VALID,96.9241,VALID,0,VALID,19.3728,VALID,157,VALID,0,
2013-11-01, 00:52:04,VALID,918.02,VALID,0,VALID,96.886,VALID,0,VALID,19.3338,VALID,157,VALID,0,
2013-11-01, 00:53:04,VALID,917.994,VALID,0,VALID,96.8784,VALID,0,VALID,19.3143,VALID,157,VALID,0,
2013-11-01, 00:54:04,VALID,917.999,VALID,0,VALID,96.8784,VALID,0,VALID,19.2753,VALID,114,VALID,0,
2013-11-01, 00:55:04,VALID,917.964,VALID,0,VALID,96.8707,VALID,0,VALID,19.2153,VALID,114,VALID,0,
2013-11-01, 00:56:04,VALID,917.973,VALID,0,VALID,96.886,VALID,0,VALID,19.1973,VALID,114,VALID,0,
2013-11-01, 00:57:04,VALID,917.926,VALID,0,VALID,96.8784,VALID,0,VALID,19.1373,VALID,117,VALID,0,
2013-11-01, 00:58:04,VALID,917.912,VALID,0,VALID,96.8936,VALID,0,VALID,19.1373,VALID,118,VALID,0,
2013-11-01, 00:59:04,VALID,917.871,VALID,0,VALID,96.8936,VALID,0,VALID,19.1178,VALID,123,VALID,0,
2013-11-01, 01:00:04,VALID,917.861,VALID,0,VALID,96.9012,VALID,0.107441,VALID,19.0983,VALID,123,VALID,0,
2013-11-01, 01:01:04,VALID,917.83,VALID,0,VALID,96.8936,VALID,0,VALID,19.1193,VALID,124,VALID,0,
2013-11-01, 01:02:04,VALID,917.814,VALID,0,VALID,96.9165,VALID,0,VALID,19.0983,VALID,124,VALID,0,
2013-11-01, 01:03:04,VALID,917.792,VALID,0,VALID,96.9165,VALID,0,VALID,19.0983,VALID,120,VALID,0,
2013-11-01, 01:04:04,VALID,917.765,VALID,0,VALID,96.9241,VALID,0,VALID,19.0983,VALID,114,VALID,0,
2013-11-01, 01:05:04,VALID,917.749,VALID,0,VALID,96.9317,VALID,0,VALID,19.0983,VALID,116,VALID,0,
2013-11-01, 01:06:04,VALID,917.756,VALID,0,VALID,96.947,VALID,0,VALID,19.0983,VALID,116,VALID,0,
2013-11-01, 01:07:04,VALID,917.722,VALID,0,VALID,96.9394,VALID,0,VALID,19.1193,VALID,116,VALID,0,
2013-11-01, 01:08:04,VALID,917.712,VALID,0,VALID,96.947,VALID,0,VALID,19.1193,VALID,116,VALID,0,
2013-11-01, 01:09:04,VALID,917.74,VALID,0,VALID,96.9698,VALID,0.107441,VALID,19.1178,VALID,116,VALID,0,
2013-11-01, 01:10:04,VALID,917.747,VALID,0,VALID,96.9698,VALID,0,VALID,19.1178,VALID,116,VALID,0,
2013-11-01, 01:11:04,VALID,917.75,VALID,0,VALID,96.9698,VALID,0,VALID,19.1373,VALID,116,VALID,0,
2013-11-01, 01:12:04,VALID,917.732,VALID,0,VALID,96.9698,VALID,0,VALID,19.1388,VALID,116,VALID,0,
2013-11-01, 01:13:04,VALID,917.745,VALID,0,VALID,96.9622,VALID,0,VALID,19.1568,VALID,115,VALID,0,
2013-11-01, 01:14:04,VALID,917.752,VALID,0,VALID,96.9775,VALID,0,VALID,19.1583,VALID,116,VALID,0,
2013-11-01, 01:15:04,VALID,917.78,VALID,0,VALID,96.9851,VALID,0,VALID,19.1763,VALID,116,VALID,0,
2013-11-01, 01:16:04,VALID,917.789,VALID,0,VALID,96.9851,VALID,0.107441,VALID,19.1763,VALID,116,VALID,0,
2013-11-01, 01:17:04,VALID,917.776,VALID,0,VALID,96.9851,VALID,0,VALID,19.1778,VALID,116,VALID,0,
2013-11-01, 01:18:04,VALID,917.773,VALID,0,VALID,97.0003,VALID,0,VALID,19.1763,VALID,116,VALID,0,
2013-11-01, 01:19:04,VALID,917.775,VALID,0,VALID,97.0003,VALID,0,VALID,19.1583,VALID,116,VALID,0,
2013-11-01, 01:20:04,VALID,917.762,VALID,0,VALID,97.008,VALID,0,VALID,19.1568,VALID,116,VALID,0,
2013-11-01, 01:21:04,VALID,917.785,VALID,0,VALID,97.0003,VALID,0,VALID,19.1373,VALID,116,VALID,0,
2013-11-01, 01:22:04,VALID,917.745,VALID,0,VALID,97.0003,VALID,0,VALID,19.1388,VALID,116,VALID,0,
2013-11-01, 01:23:04,VALID,917.754,VALID,0,VALID,97.008,VALID,0,VALID,19.0983,VALID,116,VALID,0,
2013-11-01, 01:24:04,VALID,917.699,VALID,0,VALID,97.008,VALID,0,VALID,19.0998,VALID,116,VALID,0,
2013-11-01, 01:25:04,VALID,917.673,VALID,0,VALID,97.008,VALID,0,VALID,19.0593,VALID,116,VALID,0,
2013-11-01, 01:26:04,VALID,917.648,VALID,0,VALID,97.0232,VALID,0.107441,VALID,19.0788,VALID,116,VALID,0,
2013-11-01, 01:27:04,VALID,917.668,VALID,0,VALID,97.008,VALID,0,VALID,19.0788,VALID,116,VALID,0,
2013-11-01, 01:28:04,VALID,917.616,VALID,0,VALID,97.0232,VALID,0,VALID,19.1178,VALID,116,VALID,0,
2013-11-01, 01:29:04,VALID,917.625,VALID,0,VALID,97.0232,VALID,0,VALID,19.0998,VALID,116,VALID,0,
2013-11-01, 01:30:04,VALID,917.626,VALID,0,VALID,97.0232,VALID,0,VALID,19.0998,VALID,115,VALID,0,
2013-11-01, 01:31:04,VALID,917.618,VALID,0,VALID,97.0308,VALID,0,VALID,19.0788,VALID,114,VALID,0,
2013-11-01, 01:32:04,VALID,917.631,VALID,0,VALID,97.0385,VALID,0,VALID,19.0803,VALID,114,VALID,0,
2013-11-01, 01:33:04,VALID,917.566,VALID,0,VALID,97.0385,VALID,0,VALID,19.0803,VALID,114,VALID,0,
2013-11-01, 01:34:04,VALID,917.579,VALID,0,VALID,97.0156,VALID,0.107441,VALID,19.0803,VALID,114,VALID,0,
2013-11-01, 01:35:04,VALID,917.552,VALID,0,VALID,97.0537,VALID,0,VALID,19.0803,VALID,114,VALID,0,
2013-11-01, 01:36:04,VALID,917.576,VALID,0,VALID,97.0461,VALID,0,VALID,19.0803,VALID,114,VALID,0,
2013-11-01, 01:37:04,VALID,917.542,VALID,0,VALID,97.0461,VALID,0.107441,VALID,19.0398,VALID,114,VALID,0,
2013-11-01, 01:38:04,VALID,917.526,VALID,0,VALID,97.0461,VALID,0,VALID,19.0398,VALID,114,VALID,0,
2013-11-01, 01:39:04,VALID,917.5,VALID,0,VALID,97.069,VALID,0,VALID,19.0398,VALID,114,VALID,0,
2013-11-01, 01:40:04,VALID,917.49,VALID,0,VALID,97.0766,VALID,0,VALID,19.0398,VALID,114,VALID,0,
2013-11-01, 01:41:04,VALID,917.458,VALID,0,VALID,97.0766,VALID,0,VALID,19.0608,VALID,114,VALID,0,
2013-11-01, 01:42:04,VALID,917.416,VALID,0,VALID,97.0842,VALID,0,VALID,19.0413,VALID,114,VALID,0,
2013-11-01, 01:43:04,VALID,917.419,VALID,0,VALID,97.0613,VALID,0,VALID,19.0413,VALID,114,VALID,0,
2013-11-01, 01:44:04,VALID,917.373,VALID,0,VALID,97.0613,VALID,0,VALID,19.0608,VALID,114,VALID,0,
2013-11-01, 01:45:04,VALID,917.343,VALID,0,VALID,97.0842,VALID,0,VALID,19.0998,VALID,114,VALID,0,
2013-11-01, 01:46:04,VALID,917.325,VALID,0,VALID,97.069,VALID,0,VALID,19.0803,VALID,114,VALID,0,
2013-11-01, 01:47:04,VALID,917.316,VALID,0,VALID,97.069,VALID,0,VALID,19.0593,VALID,117,VALID,0,
2013-11-01, 01:48:04,VALID,917.307,VALID,0,VALID,97.069,VALID,0,VALID,19.0803,VALID,127,VALID,0,
2013-11-01, 01:49:04,VALID,917.304,VALID,0,VALID,97.0994,VALID,0,VALID,19.0998,VALID,127,VALID,0,
2013-11-01, 01:50:04,VALID,917.264,VALID,0,VALID,97.069,VALID,0,VALID,19.1193,VALID,127,VALID,0,
2013-11-01, 01:51:04,VALID,917.275,VALID,0,VALID,97.0766,VALID,0,VALID,19.1193,VALID,127,VALID,0,
2013-11-01, 01:52:04,VALID,917.241,VALID,0,VALID,97.0994,VALID,0,VALID,19.1388,VALID,127,VALID,0,
2013-11-01, 01:53:04,VALID,917.293,VALID,0,VALID,97.0842,VALID,0,VALID,19.1597,VALID,127,VALID,0,
2013-11-01, 01:54:04,VALID,917.282,VALID,0,VALID,97.1071,VALID,0,VALID,19.1583,VALID,118,VALID,0,
2013-11-01, 01:55:04,VALID,917.277,VALID,0,VALID,97.0842,VALID,0,VALID,19.1778,VALID,118,VALID,0,
2013-11-01, 01:56:04,VALID,917.264,VALID,0,VALID,97.0842,VALID,0,VALID,19.1568,VALID,118,VALID,0,
2013-11-01, 01:57:04,VALID,917.275,VALID,0,VALID,97.1071,VALID,0,VALID,19.1778,VALID,118,VALID,0,
2013-11-01, 01:58:04,VALID,917.246,VALID,0,VALID,97.0918,VALID,0,VALID,19.1973,VALID,118,VALID,0,
2013-11-01, 01:59:04,VALID,917.242,VALID,0,VALID,97.0918,VALID,0,VALID,19.2168,VALID,118,VALID,0,
2013-11-01, 02:00:04,VALID,917.216,VALID,0,VALID,97.1147,VALID,0,VALID,19.2363,VALID,118,VALID,0,
2013-11-01, 02:01:04,VALID,917.209,VALID,0,VALID,97.0994,VALID,0,VALID,19.2363,VALID,121,VALID,0,
2013-11-01, 02:02:04,VALID,917.168,VALID,0,VALID,97.0766,VALID,0,VALID,19.2168,VALID,128,VALID,0,
2013-11-01, 02:03:04,VALID,917.165,VALID,0,VALID,97.1071,VALID,0,VALID,19.2558,VALID,127,VALID,0,
2013-11-01, 02:04:04,VALID,917.184,VALID,0,VALID,97.0918,VALID,0,VALID,19.2363,VALID,121,VALID,0,
2013-11-01, 02:05:04,VALID,917.142,VALID,0,VALID,97.0842,VALID,0,VALID,19.2363,VALID,116,VALID,0,
2013-11-01, 02:06:04,VALID,917.142,VALID,0,VALID,97.0918,VALID,0,VALID,19.2153,VALID,116,VALID,0,
2013-11-01, 02:07:04,VALID,917.155,VALID,0,VALID,97.0918,VALID,0,VALID,19.1958,VALID,116,VALID,0,
2013-11-01, 02:08:04,VALID,917.138,VALID,0,VALID,97.0994,VALID,0,VALID,19.2153,VALID,119,VALID,0,
2013-11-01, 02:09:04,VALID,917.123,VALID,0,VALID,97.0994,VALID,0,VALID,19.1958,VALID,121,VALID,0,
2013-11-01, 02:10:04,VALID,917.113,VALID,0,VALID,97.0994,VALID,0,VALID,19.2377,VALID,117,VALID,0,
2013-11-01, 02:13:04,VALID,917.088,VALID,0,VALID,97.1071,VALID,0,VALID,19.1973,VALID,117,VALID,0,
2013-11-01, 02:14:04,VALID,917.085,VALID,0,VALID,97.0994,VALID,0,VALID,19.1973,VALID,117,VALID,0,
2013-11-01, 02:15:04,VALID,917.081,VALID,0,VALID,97.0842,VALID,0,VALID,19.1973,VALID,117,VALID,0,
2013-11-01, 02:16:04,VALID,917.055,VALID,0,VALID,97.0918,VALID,0,VALID,19.1958,VALID,117,VALID,0,
2013-11-01, 02:17:04,VALID,917.044,VALID,0,VALID,97.0842,VALID,0,VALID,19.1958,VALID,117,VALID,0,
2013-11-01, 02:19:04,VALID,917.036,VALID,0,VALID,97.0766,VALID,0,VALID,19.1763,VALID,117,VALID,0,
2013-11-01, 02:20:04,VALID,917.011,VALID,0,VALID,97.0994,VALID,0,VALID,19.1958,VALID,117,VALID,0,
2013-11-01, 02:21:04,VALID,916.984,VALID,0,VALID,97.1071,VALID,0,VALID,19.1958,VALID,117,VALID,0,
2013-11-01, 02:22:04,VALID,916.978,VALID,0,VALID,97.1071,VALID,0,VALID,19.1554,VALID,117,VALID,0,
2013-11-01, 02:23:04,VALID,916.964,VALID,0,VALID,97.0994,VALID,0,VALID,19.1763,VALID,117,VALID,0,
2013-11-01, 02:27:04,VALID,916.902,VALID,0,VALID,97.0766,VALID,0,VALID,19.1973,VALID,117,VALID,0,
2013-11-01, 02:28:04,VALID,916.876,VALID,0,VALID,97.0842,VALID,0,VALID,19.1568,VALID,117,VALID,0,
2013-11-01, 02:29:04,VALID,916.854,VALID,0,VALID,97.0918,VALID,0,VALID,19.1568,VALID,118,VALID,0,
2013-11-01, 02:30:04,VALID,916.844,VALID,0,VALID,97.1071,VALID,0,VALID,19.1583,VALID,125,VALID,0,
2013-11-01, 02:31:04,VALID,916.821,VALID,0,VALID,97.0918,VALID,0,VALID,19.1178,VALID,126,VALID,0,
2013-11-01, 02:32:04,VALID,916.835,VALID,0,VALID,97.0918,VALID,0,VALID,19.1388,VALID,127,VALID,0,
2013-11-01, 02:33:04,VALID,916.821,VALID,0,VALID,97.0918,VALID,0,VALID,19.1178,VALID,127,VALID,0,
2013-11-01, 02:34:04,VALID,916.809,VALID,0,VALID,97.0842,VALID,0,VALID,19.1583,VALID,127,VALID,0,
2013-11-01, 02:35:04,VALID,916.804,VALID,0,VALID,97.0918,VALID,0,VALID,19.1388,VALID,127,VALID,0,
2013-11-01, 02:36:04,VALID,916.794,VALID,0,VALID,97.0918,VALID,0,VALID,19.1178,VALID,127,VALID,0,
2013-11-01, 02:37:04,VALID,916.781,VALID,0,VALID,97.0842,VALID,0,VALID,19.1178,VALID,127,VALID,0,
2013-11-01, 02:38:04,VALID,916.771,VALID,0,VALID,97.069,VALID,0,VALID,19.0983,VALID,142,VALID,0,
2013-11-01, 02:39:04,VALID,916.751,VALID,0,VALID,97.0537,VALID,0,VALID,19.1193,VALID,160,VALID,0,
2013-11-01, 02:40:04,VALID,916.765,VALID,0,VALID,97.0842,VALID,0,VALID,19.1193,VALID,158,VALID,0,
2013-11-01, 02:41:04,VALID,916.758,VALID,0,VALID,97.069,VALID,0,VALID,19.1178,VALID,156,VALID,0,
2013-11-01, 02:42:04,VALID,916.748,VALID,0,VALID,97.069,VALID,0,VALID,19.1178,VALID,160,VALID,0,
2013-11-01, 02:43:04,VALID,916.753,VALID,0,VALID,97.0766,VALID,0,VALID,19.0788,VALID,159,VALID,0,
2013-11-01, 02:44:04,VALID,916.745,VALID,0,VALID,97.0842,VALID,0,VALID,19.0983,VALID,158,VALID,0,
2013-11-01, 02:45:04,VALID,916.742,VALID,0,VALID,97.0918,VALID,0,VALID,19.0998,VALID,158,VALID,0,
2013-11-01, 02:46:04,VALID,916.717,VALID,0,VALID,97.0766,VALID,0.107441,VALID,19.0803,VALID,158,VALID,0,
2013-11-01, 02:47:04,VALID,916.699,VALID,0,VALID,97.0537,VALID,0,VALID,19.0998,VALID,158,VALID,0,
2013-11-01, 02:48:04,VALID,916.719,VALID,0,VALID,97.0537,VALID,0,VALID,19.0788,VALID,158,VALID,0,
2013-11-01, 02:49:04,VALID,916.718,VALID,0,VALID,97.0613,VALID,0,VALID,19.0788,VALID,142,VALID,0,
2013-11-01, 02:50:04,VALID,916.732,VALID,0,VALID,97.069,VALID,0,VALID,19.0998,VALID,138,VALID,0,
2013-11-01, 02:51:04,VALID,916.692,VALID,0,VALID,97.0385,VALID,0,VALID,19.0983,VALID,138,VALID,0,
2013-11-01, 02:52:04,VALID,916.71,VALID,0,VALID,97.0385,VALID,0,VALID,19.1388,VALID,128,VALID,0,
2013-11-01, 02:53:04,VALID,916.709,VALID,0,VALID,97.0537,VALID,0,VALID,19.0983,VALID,134,VALID,0,
2013-11-01, 02:54:04,VALID,916.682,VALID,0,VALID,97.0461,VALID,0,VALID,19.1388,VALID,132,VALID,0,
2013-11-01, 02:55:04,VALID,916.705,VALID,0,VALID,97.0156,VALID,0,VALID,19.1583,VALID,123,VALID,0,
2013-11-01, 02:56:04,VALID,916.72,VALID,0,VALID,97.0385,VALID,0,VALID,19.1583,VALID,126,VALID,0,
2013-11-01, 02:57:04,VALID,916.75,VALID,0,VALID,97.0156,VALID,0,VALID,19.1583,VALID,129,VALID,0,
2013-11-01, 02:58:04,VALID,916.707,VALID,0,VALID,96.9927,VALID,0,VALID,19.1373,VALID,129,VALID,0,
2013-11-01, 02:59:04,VALID,916.736,VALID,0,VALID,97.0003,VALID,0,VALID,19.1373,VALID,138,VALID,0,
2013-11-01, 03:02:04,VALID,916.73,VALID,0,VALID,97.008,VALID,0,VALID,19.0983,VALID,135,VALID,0,
2013-11-01, 03:04:04,VALID,916.762,VALID,0,VALID,96.9851,VALID,0,VALID,19.0803,VALID,130,VALID,0,
2013-11-01, 03:05:04,VALID,916.737,VALID,0,VALID,96.9698,VALID,0,VALID,19.0593,VALID,126,VALID,0,
2013-11-01, 03:06:04,VALID,916.747,VALID,0,VALID,96.9622,VALID,0,VALID,19.0593,VALID,126,VALID,0,
2013-11-01, 03:07:04,VALID,916.726,VALID,0,VALID,96.9622,VALID,0,VALID,19.0803,VALID,126,VALID,0,
2013-11-01, 03:10:04,VALID,916.676,VALID,0,VALID,96.9622,VALID,0,VALID,19.1027,VALID,126,VALID,0,
2013-11-01, 03:14:04,VALID,916.672,VALID,0,VALID,96.947,VALID,0,VALID,19.0998,VALID,126,VALID,0,
2013-11-01, 03:25:04,VALID,916.411,VALID,0,VALID,96.9165,VALID,0,VALID,18.9994,VALID,138,VALID,0,
2013-11-01, 03:26:04,VALID,916.418,VALID,0,VALID,96.9394,VALID,0,VALID,19.0413,VALID,145,VALID,0,
2013-11-01, 03:27:04,VALID,916.433,VALID,0,VALID,96.9394,VALID,0,VALID,18.9994,VALID,149,VALID,0,
2013-11-01, 03:28:04,VALID,916.411,VALID,0,VALID,96.9165,VALID,0.107441,VALID,19.0427,VALID,141,VALID,0,
2013-11-01, 03:29:04,VALID,916.383,VALID,0,VALID,96.9165,VALID,0.107441,VALID,19.0622,VALID,158,VALID,0,
2013-11-01, 03:30:04,VALID,916.358,VALID,0,VALID,96.9317,VALID,0,VALID,19.0427,VALID,138,VALID,0,
2013-11-01, 03:31:04,VALID,916.37,VALID,0,VALID,96.9165,VALID,0.107441,VALID,19.0427,VALID,138,VALID,0,
2013-11-01, 03:32:04,VALID,916.372,VALID,0,VALID,96.9317,VALID,0.107441,VALID,18.9799,VALID,141,VALID,0,
2013-11-01, 03:33:04,VALID,916.355,VALID,0,VALID,96.9394,VALID,0.107441,VALID,19.0203,VALID,143,VALID,0,
2013-11-01, 03:34:04,VALID,916.327,VALID,0,VALID,96.947,VALID,0,VALID,19.0398,VALID,159,VALID,0,
2013-11-01, 03:35:04,VALID,916.344,VALID,0,VALID,96.9394,VALID,0,VALID,19.0803,VALID,157,VALID,0,
2013-11-01, 03:36:04,VALID,916.304,VALID,0,VALID,96.947,VALID,0,VALID,19.0788,VALID,159,VALID,0,
2013-11-01, 03:37:04,VALID,916.32,VALID,0,VALID,96.9546,VALID,0,VALID,19.1178,VALID,149,VALID,0,
2013-11-01, 03:38:04,VALID,916.318,VALID,0,VALID,96.9394,VALID,0.107441,VALID,19.1568,VALID,143,VALID,0,
2013-11-01, 03:39:04,VALID,916.319,VALID,0,VALID,96.9241,VALID,0,VALID,19.1568,VALID,143,VALID,0,
2013-11-01, 03:40:04,VALID,916.34,VALID,0,VALID,96.947,VALID,0,VALID,19.1778,VALID,148,VALID,0,
2013-11-01, 03:41:04,VALID,916.333,VALID,0,VALID,96.9241,VALID,0.107441,VALID,19.1568,VALID,136,VALID,0,
2013-11-01, 03:42:04,VALID,916.334,VALID,0,VALID,96.9394,VALID,0,VALID,19.1763,VALID,140,VALID,0,
2013-11-01, 03:43:04,VALID,916.349,VALID,0,VALID,96.9012,VALID,0,VALID,19.1973,VALID,130,VALID,0,
2013-11-01, 03:44:04,VALID,916.362,VALID,0,VALID,96.9241,VALID,0.107441,VALID,19.2377,VALID,132,VALID,0,
2013-11-01, 03:45:04,VALID,916.357,VALID,0,VALID,96.9012,VALID,0,VALID,19.2168,VALID,136,VALID,0,
2013-11-01, 03:46:04,VALID,916.389,VALID,0,VALID,96.886,VALID,0,VALID,19.1958,VALID,134,VALID,0,
2013-11-01, 03:47:04,VALID,916.341,VALID,0,VALID,96.886,VALID,0,VALID,19.2348,VALID,144,VALID,0,
2013-11-01, 03:48:04,VALID,916.325,VALID,0,VALID,96.8784,VALID,0,VALID,19.2738,VALID,143,VALID,0,
2013-11-01, 03:49:04,VALID,916.318,VALID,0,VALID,96.8479,VALID,0,VALID,19.2528,VALID,142,VALID,0,
2013-11-01, 03:50:04,VALID,916.303,VALID,0,VALID,96.8326,VALID,0,VALID,19.2738,VALID,153,VALID,0,
2013-11-01, 03:51:04,VALID,916.284,VALID,0,VALID,96.8174,VALID,0,VALID,19.2543,VALID,153,VALID,0,
2013-11-01, 03:52:04,VALID,916.299,VALID,0,VALID,96.825,VALID,0,VALID,19.2948,VALID,155,VALID,0,
2013-11-01, 03:53:04,VALID,916.338,VALID,0,VALID,96.7945,VALID,0,VALID,19.2948,VALID,148,VALID,0,
2013-11-01, 03:54:04,VALID,916.313,VALID,0,VALID,96.764,VALID,0,VALID,19.2543,VALID,137,VALID,0,
2013-11-01, 03:55:04,VALID,916.33,VALID,0,VALID,96.7488,VALID,0,VALID,19.2753,VALID,142,VALID,0,
2013-11-01, 03:56:04,VALID,916.354,VALID,0,VALID,96.7335,VALID,0,VALID,19.2738,VALID,130,VALID,0,
2013-11-01, 03:57:04,VALID,916.34,VALID,0,VALID,96.7259,VALID,0,VALID,19.2948,VALID,132,VALID,0,
2013-11-01, 03:58:04,VALID,916.396,VALID,0,VALID,96.703,VALID,0,VALID,19.3338,VALID,139,VALID,0,
2013-11-01, 03:59:04,VALID,916.408,VALID,0,VALID,96.6802,VALID,0.107441,VALID,19.3533,VALID,147,VALID,0,
2013-11-01, 04:00:04,VALID,916.406,VALID,0,VALID,96.6573,VALID,0.107441,VALID,19.3533,VALID,157,VALID,0,
2013-11-01, 04:01:04,VALID,916.401,VALID,0,VALID,96.6268,VALID,0,VALID,19.3518,VALID,154,VALID,0,
2013-11-01, 04:02:04,VALID,916.412,VALID,0,VALID,96.5963,VALID,0.107441,VALID,19.3923,VALID,158,VALID,0,
2013-11-01, 04:03:04,VALID,916.399,VALID,0,VALID,96.5582,VALID,0.107441,VALID,19.3713,VALID,157,VALID,0,
2013-11-01, 04:04:04,VALID,916.399,VALID,0,VALID,96.5124,VALID,0,VALID,19.3908,VALID,164,VALID,0,
2013-11-01, 04:05:04,VALID,916.397,VALID,0,VALID,96.4819,VALID,0,VALID,19.3908,VALID,163,VALID,0,
2013-11-01, 04:06:04,VALID,916.41,VALID,0,VALID,96.4286,VALID,0,VALID,19.4313,VALID,163,VALID,0,
2013-11-01, 04:07:04,VALID,916.405,VALID,0,VALID,96.3752,VALID,0,VALID,19.4118,VALID,163,VALID,0,
2013-11-01, 04:08:04,VALID,916.388,VALID,0,VALID,96.3295,VALID,0.107441,VALID,19.3923,VALID,136,VALID,0,
2013-11-01, 04:09:04,VALID,916.392,VALID,0,VALID,96.2685,VALID,0.107441,VALID,19.3533,VALID,134,VALID,0,
2013-11-01, 04:10:04,VALID,916.382,VALID,0,VALID,96.1923,VALID,0,VALID,19.2543,VALID,109,VALID,0,
2013-11-01, 04:11:04,VALID,916.422,VALID,0,VALID,96.1465,VALID,0,VALID,19.2558,VALID,140,VALID,0,
2013-11-01, 04:12:04,VALID,916.413,VALID,0,VALID,96.116,VALID,0,VALID,19.2363,VALID,132,VALID,0,
2013-11-01, 04:13:04,VALID,916.468,VALID,0,VALID,96.1084,VALID,0,VALID,19.2572,VALID,155,VALID,0,
2013-11-01, 04:14:04,VALID,916.506,VALID,0,VALID,96.1084,VALID,0,VALID,19.2572,VALID,136,VALID,0,
2013-11-01, 04:15:04,VALID,916.496,VALID,0,VALID,96.1084,VALID,0,VALID,19.2572,VALID,140,VALID,0,
2013-11-01, 04:16:04,VALID,916.568,VALID,0,VALID,96.1008,VALID,0,VALID,19.2363,VALID,173,VALID,0,
2013-11-01, 04:17:04,VALID,916.58,VALID,0,VALID,96.1236,VALID,0,VALID,19.2363,VALID,172,VALID,0,
2013-11-01, 04:18:04,VALID,916.603,VALID,0,VALID,96.116,VALID,0,VALID,19.2168,VALID,136,VALID,0,
2013-11-01, 04:19:04,VALID,916.643,VALID,0,VALID,96.1313,VALID,0,VALID,19.1763,VALID,168,VALID,0,
2013-11-01, 04:20:04,VALID,916.678,VALID,0,VALID,96.1313,VALID,0,VALID,19.2168,VALID,200,VALID,0,